Temp
-7 -7 -7 -7 -7 -7 -7 -7 -7 -7 -7 -7 -7 -7 -7 -7 -7 -7 -7 -7 -7 -7 -7 -7 -7 -7 -7 -7 -8 -8 -8 -9 -9 -9 -8 -8 -8 -8 -8 -8 -8 -8 -8 -8 -8
-7 -7 -7 -7 -7 -7 -7 -7 -7 -7 -7 -7 -7 -7 -7 -7 -7 -7 -7 -7 -7 -7 -7 -7 -7 -7 -7 -7 -7 -8 -8 -8 -9 -9 -8 -8 -8 -8 -8 -8 -8 -8 -8 -8 -8
-7 -7 -7 -7 -7 -7 -7 -7 -7 -7 -7 -7 -7 -7 -7 -7 -7 -7 -7 -7 -7 -7 -7 -7 -7 -7 -7 -7 -7 -8 -8 -8 -8 -8 -8 -8 -8 -8 -8 -8 -8 -8 -8 -8 -8
-8 -7 -7 -7 -7 -7 -7 -7 -7 -7 -7 -7 -7 -7 -7 -7 -7 -7 -7 -7 -7 -7 -7 -7 -7 -7 -7 -7 -7 -8 -8 -8 -8 -8 -8 -8 -8 -8 -8 -8 -8 -7 -8 -8 -9
-8 -8 -8 -8 -8 -8 -8 -8 -8 -8 -8 -8 -8 -7 -7 -7 -7 -7 -7 -7 -7 -7 -7 -7 -7 -7 -7 -7 -8 -8 -8 -8 -8 -8 -8 -8 -8 -8 -8 -8 -8 -8 -8 -8 -8
-8 -8 -8 -8 -8 -8 -8 -8 -8 -8 -8 -8 -7 -7 -7 -7 -7 -7 -7 -7 -7 -7 -8 -8 -8 -8 -7 -7 -7 -8 -8 -8 -8 -8 -8 -8 -8 -8 -8 -8 -8 -8 -8 -8 -8
-8 -8 -8 -8 -8 -8 -8 -8 -8 -8 -8 -8 -7 -7 -7 -7 -7 -7 -7 -7 -7 -7 -7 -8 -8 -8 -8 -8 -8 -8 -8 -8 -8 -8 -8 -9 -9 -8 -8 -8 -8 -8 -7 -7 -7
-8 -8 -8 -8 -8 -8 -8 -8 -8 -8 -8 -7 -7 -7 -7 -7 -7 -7 -7 -7 -7 -7 -7 -7 -8 -8 -8 -8 -8 -8 -8 -8 -9 -9 -8 -8 -8 -8 -8 -8 -8 -8 -8 -7 -8
-8 -8 -8 -8 -8 -8 -8 -8 -8 -8 -8 -7 -8 -7 -7 -7 -7 -7 -7 -7 -7 -7 -7 -7 -7 -8 -8 -8 -8 -8 -8 -9 -9 -9 -8 -8 -8 -8 -9 -9 -9 -9 -9 -8 -8
-8 -8 -8 -8 -8 -8 -8 -8 -8 -8 -7 -7 -7 -7 -7 -7 -7 -7 -7 -7 -7 -7 -7 -7 -7 -8 -9 -8 -9 -9 -9 -9 -9 -9 -9 -9 -9 -9 -9 -9 -9 -9 -9 -9 -8
-8 -8 -8 -8 -7 -8 -7 -7 -7 -7 -8 -7 -7 -7 -7 -7 -7 -7 -7 -7 -8 -8 -8 -8 -8 -9 -8 -8 -9 -9 -9 -9 -9 -9 -9 -10 -10 -10 -10 -10 -10 -10 -9 -9 -9
-8 -7 -7 -8 -8 -8 -7 -7 -7 -7 -8 -7 -7 -7 -7 -7 -7 -8 -7 -8 -8 -8 -8 -8 -9 -9 -8 -9 -9 -9 -9 -10 -10 -10 -10 -10 -10 -10 -10 -11 -11 -11 -10 -10 -10
-8 -7 -7 -7 -7 -7 -7 -7 -7 -7 -7 -7 -7 -7 -7 -7 -7 -8 -8 -8 -8 -8 -9 -9 -9 -10 -9 -9 -9 -10 -10 -10 -10 -10 -10 -10 -10 -10 -10 -11 -11 -11 -11 -11 -11
-8 -7 -7 -7 -7 -7 -7 -7 -7 -7 -7 -7 -7 -8 -8 -8 -8 -8 -8 -9 -9 -9 -9 -9 -10 -10 -10 -10 -10 -10 -11 -11 -11 -11 -11 -11 -11 -11 -11 -11 -11 -12 -12 -12 -12
-8 -8 -8 -8 -8 -8 -8 -8 -8 -8 -8 -8 -8 -8 -9 -9 -9 -10 -9 -10 -10 -10 -10 -10 -11 -11 -11 -11 -11 -12 -12 -12 -11 -11 -11 -11 -12 -11 -11 -11 -11 -11 -12 -12 -12
-8 -8 -8 -8 -8 -9 -9 -9 -9 -9 -9 -9 -9 -10 -10 -10 -11 -11 -11 -11 -11 -11 -11 -12 -12 -12 -12 -12 -12 -12 -12 -12 -12 -12 -12 -12 -12 -12 -12 -12 -12 -12 -12 -12 -12
-8 -8 -8 -8 -9 -9 -9 -9 -9 -9 -9 -9 -10 -10 -11 -12 -12 -12 -13 -13 -12 -13 -13 -13 -13 -13 -13 -13 -13 -13 -13 -13 -13 -14 -13 -13 -14 -13 -12 -12 -12 -12 -13 -13 -13
-8 -8 -8 -9 -9 -9 -9 -9 -9 -10 -10 -10 -10 -11 -12 -13 -13 -13 -14 -14 -14 -14 -14 -14 -14 -14 -14 -13 -14 -14 -14 -15 -15 -15 -14 -14 -14 -13 -13 -13 -13 -13 -13 -13 -13
-9 -9 -9 -9 -10 -10 -10 -10 -10 -10 -11 -11 -11 -12 -13 -14 -15 -15 -15 -16 -16 -15 -15 -15 -14 -15 -15 -15 -15 -15 -15 -15 -15 -15 -15 -15 -14 -14 -14 -14 -14 -14 -14 -14 -14
-10 -10 -10 -10 -10 -10 -11 -11 -11 -11 -12 -12 -12 -13 -14 -15 -16 -16 -16 -16 -16 -15 -15 -15 -15 -15 -15 -15 -15 -15 -15 -16 -16 -16 -15 -15 -15 -15 -15 -15 -15 -15 -15 -15 -14
-10 -10 -10 -10 -11 -11 -11 -12 -12 -12 -12 -13 -13 -14 -15 -15 -16 -16 -17 -17 -16 -15 -15 -15 -15 -15 -15 -15 -15 -15 -15 -16 -16 -15 -15 -15 -16 -16 -16 -16 -15 -15 -15 -15 -14
-11 -11 -11 -11 -11 -12 -12 -12 -12 -13 -13 -14 -14 -15 -15 -16 -16 -17 -17 -17 -17 -16 -17 -17 -16 -16 -15 -15 -16 -16 -15 -16 -16 -16 -15 -15 -16 -16 -16 -16 -16 -16 -16 -15 -15
-11 -12 -12 -12 -12 -12 -12 -13 -13 -14 -14 -14 -15 -16 -16 -17 -17 -17 -17 -18 -17 -17 -18 -17 -18 -18 -17 -16 -16 -16 -16 -17 -17 -16 -15 -16 -16 -16 -16 -16 -16 -16 -15 -15 -15
-12 -12 -12 -12 -13 -13 -13 -13 -14 -14 -15 -16 -16 -17 -17 -17 -17 -18 -18 -18 -18 -18 -18 -18 -18 -18 -18 -18 -18 -18 -18 -17 -17 -16 -16 -16 -16 -16 -16 -16 -16 -15 -15 -15 -15
-12 -12 -13 -13 -13 -13 -13 -14 -15 -15 -15 -16 -17 -17 -17 -18 -18 -18 -19 -19 -18 -18 -19 -19 -19 -19 -19 -19 -18 -18 -18 -18 -17 -17 -16 -16 -16 -16 -16 -16 -16 -15 -15 -15 -15
-13 -13 -13 -13 -13 -14 -14 -14 -15 -16 -16 -17 -17 -18 -18 -19 -18 -19 -19 -19 -19 -19 -19 -19 -19 -19 -19 -19 -19 -18 -18 -18 -18 -17 -17 -17 -16 -16 -16 -16 -16 -16 -16 -16 -16
-14 -14 -14 -14 -14 -14 -15 -15 -15 -16 -16 -18 -18 -18 -18 -19 -19 -19 -19 -19 -19 -19 -19 -19 -19 -19 -18 -19 -19 -18 -18 -18 -18 -18 -18 -17 -17 -17 -17 -16 -17 -17 -17 -16 -16
Height
5873 5873 5873 5874 5874 5874 5874 5874 5875 5875 5875 5875 5876 5876 5876 5876 5877 5877 5878 5879 5879 5879 5880 5881 5882 5883 5884 5885 5886 5888 5890 5890 5889 5892 5895 5898 5900 5902 5905 5909 5910 5910 5912 5913 5912
5872 5872 5872 5872 5872 5873 5873 5873 5873 5873 5873 5873 5874 5874 5875 5875 5875 5876 5877 5877 5877 5878 5878 5879 5880 5881 5882 5883 5884 5885 5886 5886 5885 5887 5891 5893 5896 5900 5902 5905 5906 5908 5909 5909 5909
5871 5871 5871 5871 5871 5871 5872 5872 5872 5872 5872 5872 5873 5873 5873 5873 5874 5874 5875 5875 5875 5876 5876 5877 5878 5879 5879 5881 5882 5882 5882 5882 5881 5883 5886 5889 5892 5896 5898 5900 5901 5904 5906 5906 5906
5869 5869 5869 5869 5870 5870 5870 5870 5871 5870 5870 5870 5871 5871 5871 5872 5873 5872 5872 5872 5873 5873 5874 5875 5876 5877 5877 5878 5879 5880 5879 5879 5879 5881 5882 5885 5886 5890 5893 5895 5896 5899 5901 5902 5902
5867 5867 5867 5868 5868 5868 5869 5869 5869 5869 5868 5868 5868 5868 5869 5870 5870 5869 5869 5869 5870 5870 5871 5872 5872 5873 5874 5875 5876 5876 5877 5877 5877 5878 5878 5880 5882 5885 5887 5890 5891 5893 5895 5896 5897
5865 5865 5865 5866 5866 5866 5867 5867 5867 5867 5867 5867 5866 5866 5866 5867 5866 5867 5867 5867 5867 5867 5868 5868 5869 5869 5870 5871 5872 5872 5873 5874 5874 5874 5874 5874 5877 5880 5881 5884 5886 5887 5889 5890 5891
5862 5862 5863 5863 5863 5864 5864 5865 5865 5866 5866 5865 5865 5865 5865 5865 5865 5865 5864 5864 5864 5863 5864 5864 5865 5865 5865 5865 5867 5868 5869 5869 5869 5868 5869 5870 5871 5873 5874 5877 5880 5882 5882 5884 5886
5860 5860 5860 5861 5861 5862 5862 5863 5863 5864 5864 5864 5864 5864 5863 5862 5862 5862 5861 5861 5860 5860 5860 5860 5860 5861 5860 5860 5861 5862 5863 5863 5862 5862 5863 5865 5866 5866 5867 5870 5872 5875 5876 5877 5880
5857 5857 5857 5858 5859 5859 5860 5861 5861 5862 5862 5861 5862 5861 5860 5860 5859 5859 5858 5857 5856 5856 5855 5855 5855 5855 5855 5854 5854 5854 5855 5856 5855 5854 5857 5859 5860 5860 5860 5862 5864 5866 5868 5871 5872
5854 5854 5854 5855 5856 5857 5858 5858 5858 5859 5859 5858 5857 5858 5857 5855 5854 5853 5853 5852 5850 5850 5849 5849 5849 5848 5848 5847 5848 5847 5848 5850 5850 5850 5850 5852 5853 5852 5851 5854 5857 5858 5860 5863 5865
5851 5852 5852 5852 5853 5853 5854 5854 5855 5855 5854 5853 5851 5851 5849 5848 5847 5847 5846 5844 5843 5842 5841 5841 5842 5842 5839 5840 5841 5841 5841 5844 5845 5843 5844 5844 5846 5845 5846 5846 5849 5849 5852 5855 5857
5849 5849 5850 5849 5849 5849 5848 5847 5848 5848 5849 5844 5843 5843 5841 5838 5839 5838 5837 5835 5834 5833 5831 5833 5834 5832 5830 5832 5833 5833 5833 5837 5837 5837 5837 5836 5837 5839 5839 5841 5841 5843 5844 5847 5849
5848 5846 5846 5845 5844 5844 5842 5841 5840 5839 5838 5838 5835 5833 5831 5829 5827 5827 5826 5824 5824 5823 5824 5822 5822 5823 5821 5823 5824 5825 5826 5828 5830 5829 5829 5831 5830 5833 5833 5835 5837 5837 5837 5837 5839
5844 5842 5841 5840 5840 5837 5835 5833 5832 5829 5828 5827 5825 5823 5821 5821 5819 5817 5815 5816 5814 5815 5813 5810 5814 5814 5812 5813 5813 5815 5817 5819 5821 5822 5823 5824 5825 5824 5826 5827 5828 5831 5831 5831 5831
5839 5837 5835 5833 5831 5829 5828 5825 5823 5821 5819 5816 5814 5811 5809 5810 5809 5809 5808 5807 5806 5804 5801 5802 5803 5803 5802 5805 5803 5805 5807 5809 5812 5813 5814 5815 5817 5815 5818 5819 5820 5820 5820 5821 5822
5833 5830 5828 5826 5823 5821 5819 5816 5814 5812 5807 5805 5802 5801 5799 5796 5795 5795 5795 5795 5796 5794 5792 5792 5795 5795 5795 5794 5794 5795 5799 5801 5802 5803 5803 5806 5809 5807 5809 5811 5811 5812 5811 5811 5812
5826 5824 5822 5819 5817 5814 5810 5808 5806 5802 5799 5796 5792 5789 5787 5786 5783 5783 5784 5784 5783 5783 5783 5786 5786 5786 5786 5786 5785 5788 5789 5792 5794 5794 5795 5797 5798 5797 5798 5799 5801 5802 5803 5803 5803
5819 5817 5814 5812 5809 5806 5803 5801 5796 5793 5789 5787 5784 5779 5776 5775 5773 5772 5773 5773 5773 5774 5775 5775 5778 5778 5779 5778 5779 5780 5781 5783 5782 5785 5788 5785 5784 5785 5788 5789 5791 5792 5792 5793 5794
5811 5808 5805 5803 5800 5797 5794 5791 5788 5784 5781 5778 5774 5770 5767 5764 5763 5762 5762 5763 5763 5764 5764 5765 5767 5770 5770 5770 5771 5771 5772 5774 5774 5774 5774 5774 5773 5774 5777 5779 5780 5780 5780 5782 5783
5803 5800 5796 5793 5790 5787 5784 5781 5776 5773 5770 5767 5764 5761 5757 5755 5754 5752 5752 5752 5753 5754 5752 5752 5755 5757 5759 5760 5761 5761 5763 5764 5765 5764 5763 5762 5763 5762 5765 5766 5767 5767 5769 5770 5772
5793 5789 5786 5783 5780 5777 5773 5769 5765 5762 5758 5756 5752 5748 5746 5743 5743 5742 5741 5742 5743 5739 5739 5739 5740 5744 5746 5748 5749 5751 5751 5753 5755 5755 5754 5755 5754 5755 5754 5755 5756 5756 5757 5757 5759
5782 5779 5775 5772 5770 5766 5762 5758 5755 5751 5747 5744 5740 5736 5734 5731 5730 5730 5730 5728 5730 5729 5727 5725 5728 5731 5733 5736 5738 5738 5740 5743 5744 5745 5744 5744 5744 5745 5745 5745 5745 5744 5744 5744 5744
5772 5769 5766 5762 5759 5756 5751 5747 5743 5739 5735 5732 5729 5726 5723 5720 5720 5718 5718 5717 5716 5717 5718 5717 5718 5718 5720 5724 5724 5724 5729 5731 5732 5733 5733 5734 5733 5734 5732 5733 5733 5732 5731 5731 5731
5761 5758 5755 5751 5747 5744 5739 5735 5730 5728 5723 5720 5718 5715 5713 5710 5709 5707 5705 5704 5704 5705 5706 5705 5708 5708 5710 5710 5713 5715 5716 5718 5720 5720 5721 5721 5721 5720 5717 5717 5718 5718 5718 5717 5717
5750 5747 5743 5739 5735 5731 5726 5722 5717 5712 5711 5708 5707 5706 5703 5701 5699 5698 5697 5696 5696 5695 5696 5697 5699 5700 5701 5702 5702 5705 5705 5706 5708 5709 5708 5710 5710 5707 5704 5705 5703 5702 5702 5702 5701
5738 5735 5731 5727 5722 5717 5712 5709 5705 5700 5698 5696 5695 5696 5694 5692 5691 5691 5690 5689 5689 5689 5688 5688 5690 5690 5691 5692 5693 5695 5696 5695 5695 5696 5696 5696 5696 5694 5694 5692 5690 5689 5687 5686 5687
5725 5722 5716 5712 5707 5703 5699 5694 5692 5688 5686 5685 5684 5684 5684 5684 5683 5682 5683 5683 5681 5681 5681 5681 5680 5680 5680 5683 5683 5685 5688 5686 5686 5686 5685 5684 5683 5681 5680 5679 5678 5676 5673 5672 5671
Wind_Speed
4 4 4 5 5 6 6 6 6 7 7 7 6 5 4 3 2 4 4 3 4 5 6 8 10 12 14 15 16 17 20 26 31 29 26 25 24 24 24 22 22 23 20 20 21
4 5 4 5 5 5 5 6 6 7 7 7 7 7 7 6 5 5 6 5 4 6 7 8 9 11 13 14 15 16 18 21 32 33 30 28 28 26 26 25 26 26 23 24 20
5 5 6 6 6 6 5 5 6 6 6 6 6 6 7 8 8 8 8 8 7 7 8 8 9 10 11 12 14 16 19 21 26 32 33 32 32 30 30 30 29 28 23 20 13
8 8 8 8 7 6 6 6 6 6 7 7 7 7 7 8 8 8 10 11 11 10 10 10 10 10 9 10 12 14 18 22 25 25 31 31 32 32 30 28 26 20 17 14 15
10 10 10 10 9 9 8 8 7 7 8 8 8 9 8 9 11 11 11 11 12 13 14 15 15 16 16 13 12 13 14 19 21 23 27 28 29 29 28 24 23 19 15 15 18
9 10 11 10 9 9 8 8 6 4 3 3 5 5 4 6 10 10 11 13 15 15 15 17 18 20 21 21 19 18 18 18 18 19 22 25 24 21 24 19 18 19 18 20 20
11 11 10 10 10 9 8 7 5 3 3 5 5 5 5 7 9 7 9 11 13 14 17 19 19 20 20 22 22 22 23 24 24 25 24 25 26 23 26 23 22 21 23 22 21
14 13 12 12 10 10 10 9 8 7 7 9 10 9 10 11 12 13 14 16 16 17 19 18 18 21 23 24 23 23 23 25 29 31 32 32 32 31 31 30 27 26 26 26 24
13 12 12 11 12 12 12 12 12 11 12 15 16 16 17 17 19 21 22 22 23 23 23 22 22 22 23 25 27 28 29 28 31 33 33 34 33 34 35 34 34 33 33 30 30
12 11 12 11 13 15 16 16 18 18 19 21 22 23 24 26 26 27 27 27 28 28 28 28 28 26 25 28 29 31 31 29 31 35 34 33 33 34 36 35 33 32 32 29 30
14 10 12 14 15 17 21 22 24 24 26 29 32 31 33 34 34 34 33 34 33 33 33 34 33 29 35 33 31 33 33 30 29 32 32 32 31 33 33 35 32 32 29 28 28
17 16 13 17 20 21 24 28 30 31 30 35 36 37 38 40 38 36 37 37 37 37 39 37 34 34 38 34 34 34 35 32 31 31 33 34 33 31 31 30 31 32 32 30 28
18 19 20 20 21 24 27 29 31 33 36 35 37 39 40 40 40 37 37 36 35 37 35 37 38 36 39 37 36 36 36 33 31 32 34 35 35 33 32 31 30 31 33 35 35
19 21 23 24 26 27 30 33 34 37 39 41 41 41 41 40 39 36 34 33 32 30 34 39 35 35 38 38 37 37 36 35 34 34 35 35 36 36 35 36 35 34 36 37 37
24 25 27 29 31 33 35 37 39 40 42 45 44 44 43 41 39 37 38 36 32 32 37 36 33 35 37 36 40 39 37 37 36 36 36 36 37 38 36 38 37 38 38 36 36
26 27 28 30 30 31 33 34 36 39 43 43 44 44 43 44 43 40 36 37 33 35 37 36 31 33 32 35 39 40 38 37 37 37 40 36 35 38 37 36 36 34 34 36 36
29 28 31 33 34 35 36 37 38 37 37 39 38 41 41 40 41 41 38 36 37 36 36 32 31 33 33 35 38 37 38 37 38 39 40 37 36 39 39 37 37 36 34 34 36
29 32 34 35 36 37 38 38 38 38 39 39 40 40 39 37 37 39 39 38 40 39 38 36 33 32 33 36 36 35 38 39 40 36 35 40 43 43 40 40 39 40 39 37 38
34 36 38 38 38 37 37 38 39 39 38 38 39 38 36 34 36 38 40 37 37 38 38 37 35 31 33 34 32 32 34 34 36 38 39 40 43 43 43 44 43 41 42 41 40
37 38 39 40 40 40 40 39 40 39 39 38 36 36 34 31 33 39 41 42 42 42 40 44 41 37 34 35 35 36 36 36 34 36 37 39 41 44 43 44 42 41 40 41 41
41 41 41 40 41 41 41 41 41 41 40 38 36 36 35 34 33 36 42 45 44 42 45 49 51 47 42 40 45 42 43 36 36 37 40 41 41 42 44 43 44 45 45 45 44
42 42 42 42 41 41 41 42 42 42 42 39 36 35 35 35 35 36 41 46 50 54 54 45 51 42 36 46 48 47 43 39 44 45 41 47 46 44 46 47 45 45 46 47 48
39 40 39 40 42 42 43 44 44 43 41 38 35 34 32 34 36 38 41 46 50 52 53 52 44 37 42 44 46 46 37 37 40 40 43 48 50 48 47 48 50 50 51 53 54
43 42 42 42 42 44 46 47 47 46 41 36 34 32 31 32 30 33 34 38 39 40 39 40 37 44 42 37 37 38 37 37 39 42 43 45 45 46 49 49 48 49 49 50 52
43 45 43 44 46 48 48 49 47 45 43 38 34 30 30 30 28 26 26 33 35 33 32 31 31 30 27 28 30 32 33 40 42 41 44 41 41 44 48 48 48 49 50 51 53
46 46 46 49 50 50 49 49 47 43 41 40 36 32 30 29 30 24 24 25 29 31 34 35 32 31 30 32 34 33 31 33 34 36 38 40 41 44 46 49 50 51 52 54 55
50 51 52 53 50 49 48 47 43 41 40 38 37 35 33 31 30 30 29 27 27 27 27 27 27 28 30 28 30 32 29 32 34 35 38 40 43 45 47 49 50 53 55 57 57
Wind_Direction
298 289 284 284 283 278 278 279 281 282 283 284 288 297 305 299 255 220 217 235 241 244 245 240 237 234 233 232 233 234 235 232 237 240 242 245 247 251 258 263 269 273 276 284 286
319 310 300 291 282 277 276 274 273 273 277 282 284 282 278 276 271 260 251 256 257 235 234 236 240 242 241 239 238 238 237 235 234 238 240 244 248 254 260 261 265 269 275 282 286
315 309 302 294 284 279 277 275 275 276 274 275 276 275 274 272 268 265 264 262 258 245 240 242 247 243 240 244 245 238 236 239 240 239 242 247 252 254 260 265 269 273 278 280 278
293 290 288 288 286 280 272 270 271 274 277 276 273 272 274 275 273 272 265 267 263 259 253 244 244 240 237 246 247 249 246 245 245 247 249 251 257 260 263 269 272 275 278 270 273
286 286 282 280 279 275 273 271 271 272 274 277 282 280 278 274 269 267 267 268 268 263 259 258 252 246 243 235 243 252 250 252 254 252 252 256 257 264 267 268 272 269 254 243 245
290 281 280 278 274 270 265 261 255 249 257 277 289 301 307 284 279 283 282 275 271 267 264 261 256 257 253 249 244 245 248 249 254 251 253 259 261 262 266 261 256 255 247 239 242
293 287 286 283 274 261 249 245 236 226 255 262 277 296 319 302 316 322 309 298 292 282 269 265 263 261 259 256 257 255 251 250 245 245 245 251 258 258 258 256 247 246 250 246 243
306 298 285 280 262 255 251 253 230 250 267 277 280 291 299 300 304 306 304 299 300 296 292 284 271 266 263 262 259 260 256 255 249 246 250 253 252 252 255 259 259 252 253 260 259
314 300 287 269 260 257 262 261 246 253 272 279 285 292 294 293 294 294 296 294 293 290 289 290 288 275 267 264 262 256 255 251 251 250 252 254 256 256 258 258 258 259 260 262 266
314 302 291 273 264 260 268 271 260 263 266 273 281 289 288 289 290 291 289 289 287 286 284 281 279 278 271 267 262 263 261 257 257 260 260 258 256 257 259 262 261 255 255 255 256
322 306 284 277 273 272 267 269 269 270 274 276 278 280 281 283 286 289 288 285 283 279 276 275 275 274 273 274 269 264 263 262 260 262 263 262 259 260 263 265 265 265 263 260 256
320 320 310 290 285 281 278 273 273 274 277 278 276 279 280 282 284 283 283 280 277 274 274 276 273 267 270 270 267 267 266 262 260 260 260 262 259 258 258 256 259 260 262 259 258
315 312 308 301 295 290 285 283 282 279 277 275 278 281 282 282 281 282 278 276 274 273 274 270 268 265 268 267 266 265 265 264 260 258 261 262 261 263 260 253 251 255 261 267 269
310 306 303 298 294 291 287 286 285 285 285 285 283 282 281 283 282 278 274 272 270 269 267 265 268 266 265 265 264 264 263 262 261 258 258 260 259 262 263 263 259 255 257 263 265
303 299 296 293 291 290 289 287 286 287 287 287 288 288 289 286 282 281 279 274 269 261 258 263 259 261 260 262 261 260 259 261 260 259 257 256 257 260 260 262 263 264 263 260 260
311 312 313 310 307 306 303 301 298 295 294 293 290 289 288 287 285 280 274 271 264 260 259 260 263 261 260 256 256 259 258 258 261 260 259 257 261 263 262 261 260 258 258 259 261
314 312 311 309 309 307 307 307 305 303 301 299 296 290 286 284 283 283 277 267 259 256 258 261 259 256 254 253 254 257 260 259 258 256 261 262 260 257 260 257 256 257 257 258 257
309 307 306 304 305 305 308 307 304 304 301 298 297 295 290 285 282 279 275 269 266 260 258 255 252 254 256 254 252 251 253 255 259 259 265 263 261 261 261 262 261 263 262 260 256
307 304 304 305 307 309 311 308 306 302 299 293 288 285 284 281 279 277 275 270 269 262 260 260 257 253 256 248 247 250 251 254 256 258 260 261 264 265 265 266 267 265 263 264 259
307 303 302 304 307 309 310 309 306 304 300 295 288 282 279 272 270 273 272 271 267 259 254 255 251 247 241 240 245 250 251 248 249 258 260 262 264 266 266 266 266 267 265 263 262
306 305 303 305 306 307 306 305 305 304 300 295 289 282 275 270 265 262 266 264 258 254 251 248 243 245 237 245 245 249 246 243 249 254 261 261 267 267 270 273 272 270 269 268 266
306 305 305 307 306 306 305 305 304 301 296 293 288 283 277 272 268 266 260 259 260 256 268 276 264 250 245 245 251 250 245 244 259 260 263 261 263 272 274 275 277 276 275 273 272
306 307 308 308 306 306 305 303 300 299 295 293 288 285 281 274 273 274 274 275 271 260 258 262 266 271 271 268 265 269 264 270 270 272 267 269 274 273 276 274 273 273 271 271 273
306 307 307 306 306 305 304 301 299 296 290 287 284 284 281 280 280 277 279 274 267 264 263 261 264 264 268 269 266 271 269 264 265 268 271 269 272 274 275 276 275 275 275 275 276
306 307 307 306 306 305 301 298 296 292 290 284 280 280 280 281 282 281 278 276 273 270 266 261 261 264 268 270 269 268 270 265 264 265 268 270 269 270 272 274 275 276 277 278 279
305 306 307 307 305 300 298 296 296 291 286 282 278 277 274 274 280 281 284 282 275 274 276 274 272 271 269 264 264 266 268 268 267 266 267 269 270 270 272 273 275 277 278 277 276
303 305 306 306 301 298 297 297 296 289 285 279 277 276 273 271 272 276 278 278 284 285 282 277 275 272 270 270 269 265 266 266 268 269 270 271 272 273 273 275 276 277 278 278 279